JJA1827 RKSS-RKPK

Flight info

Callsign JJA1827
Flight time 0h 45m
Altitude 25000
Route OSPOT2T OSPOT Y782 TGU DCT MASTA KEVOX3
Aircraft B738/M-SDE2E3FGHIRWXY/LB1

Departure

Time 2026-04-30 08:49
Airport Gimpo International Airport (RKSS)

Arrival

Time 2026-04-30 09:35
Airport Gimhae International Airport (RKPK)
Time Latitude Longitude Altitude Speed Heading
2026-04-30 08:21 37.55621 126.80503 66 ft 0 kts 46°
2026-04-30 08:39 37.55613 126.80493 57 ft 2 kts 46°
2026-04-30 08:39 37.55601 126.80478 58 ft 2 kts 46°
2026-04-30 08:39 37.55590 126.80463 59 ft 2 kts 45°
2026-04-30 08:39 37.55578 126.80448 63 ft 2 kts 45°
2026-04-30 08:40 37.55566 126.80434 59 ft 2 kts 44°
2026-04-30 08:40 37.55555 126.80419 60 ft 2 kts 42°
2026-04-30 08:40 37.55543 126.80405 59 ft 2 kts 43°
2026-04-30 08:40 37.55528 126.80395 60 ft 2 kts
2026-04-30 08:41 37.55518 126.80396 56 ft 2 kts 338°
2026-04-30 08:41 37.55506 126.80404 64 ft 1 kts 320°
2026-04-30 08:41 37.55505 126.80405 57 ft 0 kts 319°
2026-04-30 08:42 37.55523 126.80383 59 ft 9 kts 317°
2026-04-30 08:42 37.55553 126.80298 61 ft 12 kts 259°
2026-04-30 08:43 37.55502 126.80219 59 ft 12 kts 224°
2026-04-30 08:43 37.55434 126.80189 62 ft 11 kts 157°
2026-04-30 08:43 37.55375 126.80255 64 ft 11 kts 135°
2026-04-30 08:43 37.55315 126.80331 61 ft 14 kts 135°
2026-04-30 08:44 37.55234 126.80434 62 ft 19 kts 134°
2026-04-30 08:44 37.55134 126.80562 61 ft 22 kts 134°
2026-04-30 08:44 37.55017 126.80713 61 ft 20 kts 136°
2026-04-30 08:44 37.54956 126.80785 61 ft 11 kts 136°
2026-04-30 08:45 37.54899 126.80828 62 ft 7 kts 182°
2026-04-30 08:45 37.54860 126.80802 61 ft 0 kts 222°
2026-04-30 08:47 37.54857 126.80799 62 ft 2 kts 222°
2026-04-30 08:47 37.54827 126.80765 58 ft 10 kts 223°
2026-04-30 08:47 37.54813 126.80675 55 ft 12 kts 297°
2026-04-30 08:47 37.54845 126.80627 54 ft 0 kts 315°
2026-04-30 08:48 37.54846 126.80626 54 ft 1 kts 315°
2026-04-30 08:48 37.54909 126.80546 55 ft 41 kts 315°
2026-04-30 08:49 37.55303 126.80050 54 ft 117 kts 315°
2026-04-30 08:49 37.56005 126.79168 249 ft 160 kts 312°
2026-04-30 08:49 37.56762 126.78203 1292 ft 149 kts 311°
2026-04-30 08:49 37.57493 126.77228 2164 ft 157 kts 311°
2026-04-30 08:50 37.58302 126.76136 2707 ft 187 kts 313°
2026-04-30 08:50 37.59261 126.74842 3051 ft 215 kts 313°
2026-04-30 08:50 37.60328 126.73409 3589 ft 232 kts 313°
2026-04-30 08:50 37.61444 126.71790 3855 ft 263 kts 303°
2026-04-30 08:51 37.62052 126.69533 4480 ft 283 kts 276°
2026-04-30 08:51 37.61825 126.67064 4623 ft 285 kts 248°
2026-04-30 08:51 37.60692 126.65089 4986 ft 279 kts 226°
2026-04-30 08:51 37.59284 126.63347 4986 ft 285 kts 225°
2026-04-30 08:52 37.57878 126.61603 4946 ft 282 kts 225°
2026-04-30 08:52 37.56479 126.59941 4949 ft 278 kts 216°
2026-04-30 08:52 37.54710 126.59019 5016 ft 280 kts 186°
2026-04-30 08:52 37.52775 126.58835 5913 ft 275 kts 182°
2026-04-30 08:53 37.50886 126.58639 7079 ft 269 kts 184°
2026-04-30 08:53 37.49013 126.58402 8070 ft 271 kts 184°
2026-04-30 08:53 37.47147 126.58152 8986 ft 274 kts 184°
2026-04-30 08:53 37.45249 126.57895 9972 ft 275 kts 184°
2026-04-30 08:54 37.43322 126.57635 10629 ft 287 kts 185°
2026-04-30 08:54 37.41236 126.57361 10825 ft 314 kts 184°
2026-04-30 08:54 37.40061 126.57335 10926 ft 327 kts 174°
2026-04-30 08:55 37.38680 126.57631 11090 ft 339 kts 167°
2026-04-30 08:55 37.38591 126.57657 11102 ft 340 kts 167°
2026-04-30 08:55 37.38361 126.57724 11150 ft 341 kts 166°
2026-04-30 08:56 37.38129 126.57793 11200 ft 343 kts 166°
2026-04-30 08:56 37.37820 126.57885 11265 ft 344 kts 167°
2026-04-30 08:56 37.37191 126.58037 11401 ft 348 kts 172°
2026-04-30 08:57 37.36627 126.58101 11478 ft 352 kts 179°
2026-04-30 08:58 37.36134 126.58082 11449 ft 359 kts 186°
2026-04-30 08:59 37.36051 126.58071 11434 ft 360 kts 187°
2026-04-30 08:59 37.35624 126.57976 11283 ft 367 kts 194°
2026-04-30 09:00 37.33758 126.56258 10113 ft 424 kts 228°
2026-04-30 09:00 37.31685 126.53976 11618 ft 368 kts 209°
2026-04-30 09:00 37.29354 126.52914 11970 ft 356 kts 186°
2026-04-30 09:00 37.26915 126.53252 12185 ft 359 kts 159°
2026-04-30 09:01 37.24765 126.54985 12396 ft 382 kts 135°
2026-04-30 09:01 37.23323 126.57869 12708 ft 401 kts 111°
2026-04-30 09:01 37.22622 126.61287 13282 ft 409 kts 103°
2026-04-30 09:01 37.21802 126.64678 13860 ft 411 kts 117°
2026-04-30 09:02 37.18199 126.70133 15113 ft 408 kts 142°
2026-04-30 09:02 37.16028 126.72475 15712 ft 411 kts 141°
2026-04-30 09:02 37.13910 126.74805 16257 ft 415 kts 141°
2026-04-30 09:03 37.11696 126.77268 16827 ft 418 kts 141°
2026-04-30 09:03 37.09522 126.79702 17390 ft 420 kts 141°
2026-04-30 09:03 37.07337 126.82152 17931 ft 423 kts 141°
2026-04-30 09:03 37.05121 126.84641 18421 ft 426 kts 141°
2026-04-30 09:04 37.02901 126.87132 18855 ft 429 kts 141°
2026-04-30 09:04 37.00662 126.89643 19252 ft 432 kts 142°
2026-04-30 09:04 36.98438 126.92134 19642 ft 435 kts 142°
2026-04-30 09:04 36.96170 126.94673 20100 ft 437 kts 142°
2026-04-30 09:05 36.93890 126.97223 20518 ft 440 kts 142°
2026-04-30 09:05 36.91586 126.99796 20920 ft 443 kts 142°
2026-04-30 09:05 36.89274 127.02376 21315 ft 446 kts 143°
2026-04-30 09:05 36.86943 127.04974 21698 ft 449 kts 143°
2026-04-30 09:06 36.84601 127.07582 22058 ft 452 kts 143°
2026-04-30 09:06 36.82265 127.10182 22431 ft 454 kts 143°
2026-04-30 09:06 36.79902 127.12812 22793 ft 456 kts 143°
2026-04-30 09:06 36.77510 127.15469 23135 ft 459 kts 144°
2026-04-30 09:07 36.75119 127.18125 23464 ft 461 kts 144°
2026-04-30 09:07 36.72741 127.20763 23729 ft 463 kts 144°
2026-04-30 09:07 36.70316 127.23452 24005 ft 465 kts 144°
2026-04-30 09:07 36.67892 127.26135 24280 ft 466 kts 144°
2026-04-30 09:08 36.65455 127.28829 24566 ft 468 kts 144°
2026-04-30 09:08 36.63039 127.31500 24834 ft 469 kts 144°
2026-04-30 09:08 36.60559 127.34240 24901 ft 471 kts 144°
2026-04-30 09:08 36.58128 127.36923 24910 ft 472 kts 144°
2026-04-30 09:09 36.55667 127.39638 24906 ft 471 kts 144°
2026-04-30 09:09 36.53212 127.42346 24913 ft 470 kts 145°
2026-04-30 09:09 36.50760 127.45046 24923 ft 470 kts 145°
2026-04-30 09:09 36.48323 127.47726 24916 ft 470 kts 145°
2026-04-30 09:10 36.45864 127.50426 24917 ft 472 kts 145°
2026-04-30 09:10 36.43392 127.53138 24918 ft 473 kts 145°
2026-04-30 09:10 36.40915 127.55854 24919 ft 473 kts 145°
2026-04-30 09:10 36.38451 127.58554 24923 ft 472 kts 145°
2026-04-30 09:11 36.36010 127.61228 24921 ft 473 kts 145°
2026-04-30 09:11 36.33539 127.63930 24923 ft 473 kts 145°
2026-04-30 09:11 36.31070 127.66628 24918 ft 473 kts 145°
2026-04-30 09:11 36.28582 127.69344 24934 ft 474 kts 145°
2026-04-30 09:12 36.26107 127.72044 24937 ft 473 kts 145°
2026-04-30 09:12 36.23660 127.74712 24929 ft 473 kts 145°
2026-04-30 09:12 36.21223 127.77373 24797 ft 458 kts 145°
2026-04-30 09:12 36.18892 127.79927 24681 ft 438 kts 146°
2026-04-30 09:13 36.16621 127.82411 24502 ft 422 kts 146°
2026-04-30 09:13 36.14436 127.84789 23998 ft 416 kts 146°
2026-04-30 09:13 36.12255 127.87148 23321 ft 415 kts 146°
2026-04-30 09:13 36.10108 127.89465 22631 ft 413 kts 146°
2026-04-30 09:14 36.07948 127.91798 21965 ft 410 kts 145°
2026-04-30 09:14 36.05807 127.94114 21372 ft 405 kts 144°
2026-04-30 09:14 36.03682 127.96411 20740 ft 402 kts 144°
2026-04-30 09:14 36.01568 127.98694 20087 ft 401 kts 144°
2026-04-30 09:15 35.99482 128.00948 19583 ft 396 kts 144°
2026-04-30 09:15 35.97447 128.03148 19155 ft 391 kts 144°
2026-04-30 09:15 35.95429 128.05328 18880 ft 382 kts 143°
2026-04-30 09:15 35.93425 128.07488 18609 ft 385 kts 143°
2026-04-30 09:16 35.91387 128.09677 18407 ft 390 kts 143°
2026-04-30 09:16 35.89329 128.11888 18160 ft 394 kts 143°
2026-04-30 09:16 35.87273 128.14101 17889 ft 390 kts 143°
2026-04-30 09:16 35.85369 128.16150 17639 ft 385 kts 143°
2026-04-30 09:17 35.83354 128.18318 17378 ft 383 kts 143°
2026-04-30 09:17 35.81344 128.20478 17132 ft 382 kts 143°
2026-04-30 09:17 35.79337 128.22631 16859 ft 381 kts 143°
2026-04-30 09:17 35.78010 128.24055 16682 ft 380 kts 143°
2026-04-30 09:18 35.76014 128.26194 16439 ft 379 kts 143°
2026-04-30 09:18 35.73374 128.29021 16104 ft 378 kts 143°
2026-04-30 09:18 35.72031 128.30458 15929 ft 378 kts 143°
2026-04-30 09:18 35.70051 128.32575 15689 ft 377 kts 143°
2026-04-30 09:19 35.67425 128.35382 15252 ft 374 kts 142°
2026-04-30 09:19 35.66097 128.36802 14907 ft 372 kts 142°
2026-04-30 09:19 35.64151 128.38879 14405 ft 368 kts 142°
2026-04-30 09:19 35.62228 128.40931 13895 ft 365 kts 142°
2026-04-30 09:20 35.60339 128.42945 13338 ft 362 kts 142°
2026-04-30 09:20 35.58421 128.44988 12777 ft 359 kts 142°
2026-04-30 09:20 35.56562 128.46968 12258 ft 355 kts 142°
2026-04-30 09:20 35.54701 128.48949 11736 ft 352 kts 142°
2026-04-30 09:21 35.52850 128.50919 11231 ft 349 kts 142°
2026-04-30 09:21 35.51018 128.52865 10865 ft 343 kts 142°
2026-04-30 09:21 35.49270 128.54723 10723 ft 330 kts 142°
2026-04-30 09:21 35.47382 128.56205 10565 ft 313 kts 161°
2026-04-30 09:22 35.45337 128.56944 10446 ft 301 kts 169°
2026-04-30 09:22 35.43325 128.57491 10327 ft 292 kts 170°
2026-04-30 09:22 35.41358 128.58002 10183 ft 283 kts 170°
2026-04-30 09:22 35.39485 128.58491 10072 ft 275 kts 170°
2026-04-30 09:23 35.37838 128.58928 9944 ft 269 kts 170°
2026-04-30 09:23 35.36012 128.59418 9639 ft 267 kts 170°
2026-04-30 09:23 35.34196 128.59910 9346 ft 265 kts 169°
2026-04-30 09:23 35.32398 128.60401 9062 ft 263 kts 169°
2026-04-30 09:24 35.30644 128.60881 8777 ft 262 kts 169°
2026-04-30 09:24 35.28888 128.61363 8499 ft 261 kts 169°
2026-04-30 09:24 35.27112 128.61851 8207 ft 259 kts 169°
2026-04-30 09:24 35.25347 128.62336 7929 ft 259 kts 169°
2026-04-30 09:25 35.23616 128.62812 7652 ft 258 kts 168°
2026-04-30 09:25 35.21872 128.63321 7376 ft 258 kts 162°
2026-04-30 09:25 35.20399 128.64526 7216 ft 259 kts 131°
2026-04-30 09:25 35.19562 128.66517 6980 ft 268 kts 105°
2026-04-30 09:26 35.18965 128.68662 6722 ft 267 kts 125°
2026-04-30 09:26 35.17585 128.70091 6347 ft 266 kts 160°
2026-04-30 09:26 35.15780 128.70542 5997 ft 265 kts 173°
2026-04-30 09:26 35.13940 128.70887 5612 ft 269 kts 170°
2026-04-30 09:27 35.12100 128.71325 5342 ft 268 kts 168°
2026-04-30 09:27 35.10281 128.71832 5044 ft 268 kts 166°
2026-04-30 09:27 35.08474 128.72375 4811 ft 265 kts 166°
2026-04-30 09:27 35.06723 128.72914 4652 ft 260 kts 165°
2026-04-30 09:28 35.04992 128.73460 4513 ft 253 kts 162°
2026-04-30 09:28 35.03556 128.74562 4382 ft 241 kts 124°
2026-04-30 09:28 35.03028 128.76382 4286 ft 223 kts 85°
2026-04-30 09:28 35.03499 128.78111 4047 ft 212 kts 51°
2026-04-30 09:29 35.04508 128.79314 3867 ft 195 kts 35°
2026-04-30 09:29 35.05565 128.80254 3667 ft 180 kts 33°
2026-04-30 09:29 35.06536 128.81103 3545 ft 163 kts 33°
2026-04-30 09:29 35.07416 128.81882 3321 ft 155 kts 33°
2026-04-30 09:30 35.08263 128.82634 3131 ft 150 kts 33°
2026-04-30 09:30 35.09099 128.83380 2943 ft 147 kts 34°
2026-04-30 09:30 35.09916 128.84111 2742 ft 145 kts 34°
2026-04-30 09:30 35.10724 128.84839 2573 ft 143 kts 36°
2026-04-30 09:31 35.11516 128.85583 2351 ft 147 kts 37°
2026-04-30 09:31 35.12322 128.86346 2111 ft 145 kts 37°
2026-04-30 09:31 35.13117 128.87100 1821 ft 143 kts 38°
2026-04-30 09:31 35.13889 128.87831 1748 ft 138 kts 38°
2026-04-30 09:32 35.14662 128.88508 1684 ft 138 kts 33°
2026-04-30 09:32 35.15490 128.89157 1574 ft 145 kts 30°
2026-04-30 09:32 35.16436 128.89576 1439 ft 146 kts 12°
2026-04-30 09:32 35.17433 128.89711 1275 ft 142 kts
2026-04-30 09:33 35.18418 128.89689 1133 ft 143 kts
2026-04-30 09:33 35.19414 128.89697 1095 ft 145 kts
2026-04-30 09:33 35.20375 128.90012 1035 ft 142 kts 32°
2026-04-30 09:33 35.20967 128.90959 895 ft 147 kts 71°
2026-04-30 09:34 35.20964 128.92172 697 ft 145 kts 114°
2026-04-30 09:34 35.20310 128.93132 357 ft 148 kts 140°
2026-04-30 09:34 35.19351 128.93496 122 ft 146 kts 169°
2026-04-30 09:34 35.18359 128.93633 27 ft 136 kts 170°
2026-04-30 09:35 35.17528 128.93743 25 ft 93 kts 174°
2026-04-30 09:35 35.17146 128.93837 23 ft 44 kts 152°
2026-04-30 09:35 35.16985 128.93985 22 ft 27 kts 123°
2026-04-30 09:35 35.16974 128.94201 22 ft 25 kts 83°
2026-04-30 09:36 35.16991 128.94403 22 ft 19 kts 83°
2026-04-30 09:36 35.16986 128.94561 22 ft 19 kts 112°
2026-04-30 09:36 35.16941 128.94684 22 ft 14 kts 114°
2026-04-30 09:36 35.16919 128.94767 22 ft 9 kts 84°
2026-04-30 09:37 35.16959 128.94814 22 ft 7 kts 25°
2026-04-30 09:37 35.16973 128.94822 24 ft 0 kts 24°